,

(GMT )
P11-b Sea

Weather History for EHPG - December, 2013

Change the Weather History Date:

Friday, December 6, 2013

  Actual Average Record
Temperature  
Mean Temperature 42 °F -  
Max Temperature 44 °F - - ()
Min Temperature 40 °F - - ()
Degree Days  
Heating Degree Days 23    
Moisture  
Dew Point 29 °F    
Average Humidity 57    
Maximum Humidity 66    
Minimum Humidity 40    
Precipitation  
Precipitation 0.00 in - - ()
Sea Level Pressure  
Sea Level Pressure 30.14 in    
Wind  
Wind Speed 20 mph ()    
Max Wind Speed 34 mph    
Max Gust Speed -    
Visibility 7.1 miles    
Events      
T = Trace of Precipitation, MM = Missing Value Source: Averaged Metar Reports

Daily Weather History Graph

Daily Weather History Graph

Search for Another Location

Airport or City:

Trip Planner

Search our weather history database for the weather conditions in past years. The results will help you decide how hot, cold, wet, or windy it might be!

Date:

Astronomy

Dec. 06, 2013 Rise Set
Actual Time 8:40 AM CET 4:34 PM CET
Civil Twilight 8:00 AM CET 5:15 PM CET
Nautical Twilight 7:16 AM CET 5:58 PM CET
Astronomical Twilight 6:35 AM CET 6:39 PM CET
Moon 11:18 AM CET (12/6) 9:07 PM CET (12/6)
Length of Visible Light 9h 14m
Length of Day
7h 53m
Waxing Crescent, 17% of the Moon is Illuminated
Dec 6
Waxing Crescent
Dec 9
First Quarter
Dec 17
Full
Dec 25
Last Quarter
Jan 1
New

Hourly Weather History & Observations

Time (CET) Temp. Dew Point Humidity Pressure Visibility Wind Dir Wind Speed Gust Speed Precip Events Conditions
12:25 AM 42.8 °F 30.2 °F 61% 29.98 in 6.2 mi North - - N/A   Mostly Cloudy
12:55 AM 44.6 °F 32.0 °F 61% 29.98 in 6.2 mi North - - N/A   Scattered Clouds
1:00 AM 43 °F 29 °F 46% 30.01 in 11 mi 33.6 mph - -   Partly Cloudy
1:25 AM 42.8 °F 28.4 °F 57% 29.98 in 6.2 mi North - - N/A   Mostly Cloudy
1:55 AM 42.8 °F 28.4 °F 57% 30.01 in 6.2 mi North - - N/A   Mostly Cloudy
2:25 AM 42.8 °F 32.0 °F 66% 30.01 in 6.2 mi North - - N/A   Scattered Clouds
2:55 AM 42.8 °F 26.6 °F 53% 30.01 in 6.2 mi North - - N/A   Mostly Cloudy
3:25 AM 42.8 °F 28.4 °F 57% 30.01 in 6.2 mi North - - N/A   Scattered Clouds
3:55 AM 42.8 °F 26.6 °F 53% 30.04 in 6.2 mi North - - N/A   Scattered Clouds
4:25 AM 42.8 °F 28.4 °F 57% 30.04 in 6.2 mi North - - N/A   Scattered Clouds
4:55 AM 42.8 °F 26.6 °F 53% 30.04 in 6.2 mi North - - N/A   Scattered Clouds
5:25 AM 42.8 °F 28.4 °F 57% 30.04 in 6.2 mi North - - N/A   Mostly Cloudy
5:55 AM 42.8 °F 28.4 °F 57% 30.04 in 6.2 mi North - - N/A   Mostly Cloudy
6:25 AM 42.8 °F 28.4 °F 57% 30.06 in 6.2 mi North - - N/A   Mostly Cloudy
7:00 AM 42 °F 26 °F 40% 30.08 in 11 mi 26.8 mph - -   Partly Cloudy
7:25 AM 42.8 °F 30.2 °F 61% 30.06 in 6.2 mi North - - N/A   Mostly Cloudy
7:55 AM 42.8 °F 28.4 °F 57% 30.06 in 6.2 mi North - - N/A   Mostly Cloudy
8:25 AM 42.8 °F 30.2 °F 61% 30.06 in 6.2 mi North - - N/A   Scattered Clouds
8:55 AM 42.8 °F 24.8 °F 49% 30.09 in 6.2 mi North - - N/A   Scattered Clouds
9:25 AM 42.8 °F 28.4 °F 57% 30.12 in 6.2 mi North - - N/A   Scattered Clouds
9:55 AM 42.8 °F 26.6 °F 53% 30.12 in 6.2 mi North - - N/A   Scattered Clouds
10:00 AM 42 °F 27 °F 44% 30.13 in 12 mi 26.8 mph - -   Scattered Clouds
10:25 AM 42.8 °F 28.4 °F 57% 30.12 in 6.2 mi North - - N/A   Scattered Clouds
10:55 AM 42.8 °F 30.2 °F 61% 30.12 in 6.2 mi North - - N/A   Scattered Clouds
11:25 AM 42.8 °F 30.2 °F 61% 30.15 in 6.2 mi North - - N/A   Scattered Clouds
11:55 AM 42.8 °F 28.4 °F 57% 30.12 in 6.2 mi North - - N/A   Scattered Clouds
12:25 PM 42.8 °F 30.2 °F 61% 30.15 in 6.2 mi North - - N/A   Scattered Clouds
12:55 PM 44.6 °F 30.2 °F 57% 30.15 in 6.2 mi North - - N/A   Scattered Clouds
1:00 PM 43 °F 27 °F 40% 30.19 in 14 mi 22.4 mph - -   Partly Cloudy
1:25 PM 42.8 °F 28.4 °F 57% 30.15 in 6.2 mi North - - N/A   Scattered Clouds
1:55 PM 44.6 °F 30.2 °F 57% 30.18 in 6.2 mi North - - N/A   Scattered Clouds
2:25 PM 42.8 °F 28.4 °F 57% 30.18 in 6.2 mi North - - N/A   Scattered Clouds
2:55 PM 42.8 °F 30.2 °F 61% 30.18 in 6.2 mi North - - N/A   Scattered Clouds
3:25 PM 42.8 °F 30.2 °F 61% 30.18 in 6.2 mi North - - N/A   Mostly Cloudy
3:55 PM 42.8 °F 30.2 °F 61% 30.18 in 6.2 mi North - - N/A   Mostly Cloudy
4:00 PM 43 °F 31 °F 53% 30.21 in 12 mi 22.4 mph - -   Partly Cloudy
4:25 PM 42.8 °F 30.2 °F 61% 30.18 in 6.2 mi North - - N/A   Mostly Cloudy
4:55 PM 42.8 °F 28.4 °F 57% 30.21 in 6.2 mi North - - N/A   Mostly Cloudy
5:25 PM 42.8 °F 28.4 °F 57% 30.21 in 6.2 mi North - - N/A   Scattered Clouds
5:55 PM 42.8 °F 30.2 °F 61% 30.21 in 6.2 mi North - - N/A   Scattered Clouds
6:25 PM 42.8 °F 28.4 °F 57% 30.24 in 6.2 mi North - - N/A   Scattered Clouds
6:55 PM 42.8 °F 28.4 °F 57% 30.24 in 6.2 mi North - - N/A   Scattered Clouds
7:00 PM 44 °F 30 °F 45% 30.26 in 16 mi 17.9 mph - -   Partly Cloudy
7:25 PM 42.8 °F 28.4 °F 57% 30.24 in 6.2 mi North - - N/A   Mostly Cloudy
7:55 PM 42.8 °F 26.6 °F 53% 30.24 in 6.2 mi North - - N/A   Mostly Cloudy
8:25 PM 42.8 °F 30.2 °F 61% 30.24 in 6.2 mi North - - N/A   Overcast
8:55 PM 42.8 °F 30.2 °F 61% 30.27 in 6.2 mi North - - N/A   Overcast
9:25 PM 42.8 °F 30.2 °F 61% 30.27 in 6.2 mi North - - N/A   Mostly Cloudy
9:55 PM 42.8 °F 30.2 °F 61% 30.27 in 6.2 mi North - - N/A   Mostly Cloudy
10:00 PM 44 °F 32 °F 51% 30.30 in 14 mi 15.7 mph - -   Overcast
10:25 PM 42.8 °F 30.2 °F 61% 30.27 in 6.2 mi North - - N/A   Overcast
10:55 PM 42.8 °F 30.2 °F 61% 30.27 in 6.2 mi North - - N/A   Mostly Cloudy
11:25 PM 42.8 °F 32.0 °F 66% 30.27 in 6.2 mi North - - N/A   Mostly Cloudy
11:55 PM 42.8 °F 30.2 °F 61% 30.30 in 6.2 mi North - - N/A   Scattered Clouds